Time,TemperatureF,DewpointF,PressureIn,WindDirection,WindDirectionDegrees,WindSpeedMPH,WindSpeedGustMPH,Humidity,HourlyPrecipIn,Conditions,Clouds,dailyrainin,SolarRadiationWatts/m^2,SoftwareType,DateUTC
2013-03-27 00:00:00,33.8,22.9,29.98,WSW,244,5.0,8.0,64,0.00,FEW,,0.00,0.0,WeatherDisplay:10.37,2013-03-27 04:00:00,
2013-03-27 00:05:00,33.8,22.9,29.98,WSW,246,5.0,10.0,64,0.00,FEW,,0.00,0.0,WeatherDisplay:10.37,2013-03-27 04:05:00,
2013-03-27 00:10:00,33.8,22.9,29.98,WSW,240,5.0,8.0,64,0.00,FEW,,0.00,0.0,WeatherDisplay:10.37,2013-03-27 04:10:00,
2013-03-27 00:15:00,33.7,22.8,29.98,WSW,244,5.0,6.0,64,0.00,FEW,,0.00,0.0,WeatherDisplay:10.37,2013-03-27 04:15:00,
2013-03-27 00:20:00,33.7,22.8,29.98,WSW,238,2.0,9.0,64,0.00,FEW,,0.00,0.0,WeatherDisplay:10.37,2013-03-27 04:20:00,
2013-03-27 00:25:00,33.5,22.6,29.98,SW,225,2.0,8.0,64,0.00,FEW,,0.00,0.0,WeatherDisplay:10.37,2013-03-27 04:25:00,
2013-03-27 00:30:00,33.3,22.5,29.98,SW,232,3.0,7.0,64,0.00,FEW,,0.00,0.0,WeatherDisplay:10.37,2013-03-27 04:30:00,
2013-03-27 00:35:00,33.1,22.2,29.98,WSW,237,3.0,5.0,64,0.00,FEW,,0.00,0.0,WeatherDisplay:10.37,2013-03-27 04:35:00,
2013-03-27 00:40:00,32.9,22.4,29.98,WSW,237,2.0,6.0,65,0.00,FEW,,0.00,0.0,WeatherDisplay:10.37,2013-03-27 04:40:00,
2013-03-27 00:45:00,32.8,22.3,29.98,WSW,237,3.0,5.0,65,0.00,FEW,,0.00,0.0,WeatherDisplay:10.37,2013-03-27 04:45:00,
2013-03-27 00:50:00,32.6,22.1,29.98,WSW,237,2.0,4.0,65,0.00,FEW,,0.00,0.0,WeatherDisplay:10.37,2013-03-27 04:50:00,
2013-03-27 00:55:00,32.5,22.4,29.98,WSW,237,2.0,5.0,66,0.00,FEW,,0.00,0.0,WeatherDisplay:10.37,2013-03-27 04:55:00,
2013-03-27 01:00:00,32.3,22.2,29.98,SW,232,3.0,7.0,66,0.00,FEW,,0.00,0.0,WeatherDisplay:10.37,2013-03-27 05:00:00,
2013-03-27 01:05:00,32.5,22.4,29.98,SW,223,3.0,7.0,66,0.00,FEW,,0.00,0.0,WeatherDisplay:10.37,2013-03-27 05:05:00,
2013-03-27 01:10:00,32.3,22.2,29.98,SW,219,2.0,6.0,66,0.00,FEW,,0.00,0.0,WeatherDisplay:10.37,2013-03-27 05:10:00,
2013-03-27 01:15:00,32.2,22.1,29.98,SW,220,2.0,6.0,66,0.00,FEW,,0.00,0.0,WeatherDisplay:10.37,2013-03-27 05:15:00,
2013-03-27 01:20:00,32.2,22.5,29.98,SW,221,3.0,7.0,67,0.00,FEW,,0.00,0.0,WeatherDisplay:10.37,2013-03-27 05:20:00,
2013-03-27 01:25:00,32.0,22.6,29.98,SW,227,5.0,8.0,68,0.00,FEW,,0.00,0.0,WeatherDisplay:10.37,2013-03-27 05:25:00,
2013-03-27 01:30:00,32.0,22.6,29.98,SW,234,2.0,6.0,68,0.00,FEW,,0.00,0.0,WeatherDisplay:10.37,2013-03-27 05:30:00,
2013-03-27 01:35:00,32.0,22.6,29.98,SW,235,3.0,7.0,68,0.00,FEW,,0.00,0.0,WeatherDisplay:10.37,2013-03-27 05:35:00,
2013-03-27 01:40:00,31.9,22.9,29.98,SW,231,5.0,6.0,69,0.00,FEW,,0.00,0.0,WeatherDisplay:10.37,2013-03-27 05:40:00,
2013-03-27 01:45:00,31.9,22.9,29.98,SW,231,3.0,6.0,69,0.00,FEW,,0.00,0.0,WeatherDisplay:10.37,2013-03-27 05:45:00,
2013-03-27 01:50:00,31.9,23.2,29.98,WSW,238,3.0,6.0,70,0.00,FEW,,0.00,0.0,WeatherDisplay:10.37,2013-03-27 05:50:00,
2013-03-27 01:55:00,31.9,23.3,29.98,SW,221,5.0,7.0,70,0.00,FEW,,0.00,0.0,WeatherDisplay:10.37,2013-03-27 05:55:00,
2013-03-27 02:00:00,32.2,23.8,29.98,SW,217,3.0,7.0,71,0.00,FEW,,0.00,0.0,WeatherDisplay:10.37,2013-03-27 06:00:00,
2013-03-27 02:05:00,32.4,24.1,29.98,SW,222,3.0,9.0,71,0.00,FEW,,0.00,0.0,WeatherDisplay:10.37,2013-03-27 06:05:00,
2013-03-27 02:10:00,32.6,24.2,29.98,SW,221,3.0,7.0,71,0.00,FEW,,0.00,0.0,WeatherDisplay:10.37,2013-03-27 06:10:00,
2013-03-27 02:15:00,32.8,24.4,29.97,SW,221,5.0,8.0,71,0.00,FEW,,0.00,0.0,WeatherDisplay:10.37,2013-03-27 06:15:00,
2013-03-27 02:20:00,32.9,24.5,29.97,SW,231,6.0,9.0,71,0.00,BKN,,0.00,0.0,WeatherDisplay:10.37,2013-03-27 06:20:00,
2013-03-27 02:25:00,33.1,24.7,29.97,SW,236,6.0,8.0,71,0.00,BKN,,0.00,0.0,WeatherDisplay:10.37,2013-03-27 06:25:00,
2013-03-27 02:30:00,33.2,25.5,29.97,WSW,240,6.0,8.0,73,0.00,BKN,,0.00,0.0,WeatherDisplay:10.37,2013-03-27 06:30:00,
2013-03-27 02:40:00,33.5,25.1,29.97,SW,227,3.0,8.0,71,0.00,BKN,,0.00,0.0,WeatherDisplay:10.37,2013-03-27 06:40:00,
2013-03-27 02:45:00,33.7,25.3,29.97,SW,229,2.0,9.0,71,0.00,BKN,,0.00,0.0,WeatherDisplay:10.37,2013-03-27 06:45:00,
2013-03-27 02:50:00,33.7,25.3,29.97,SW,230,5.0,9.0,71,0.00,BKN,,0.00,0.0,WeatherDisplay:10.37,2013-03-27 06:50:00,
2013-03-27 02:55:00,33.8,25.4,29.97,SW,229,6.0,9.0,71,0.00,BKN,,0.00,0.0,WeatherDisplay:10.37,2013-03-27 06:55:00,
2013-03-27 03:00:00,33.9,25.4,29.97,SW,233,5.0,8.0,71,0.00,BKN,,0.00,0.0,WeatherDisplay:10.37,2013-03-27 07:00:00,
2013-03-27 03:05:00,34.0,25.6,29.97,SW,232,3.0,7.0,71,0.00,BKN,,0.00,0.0,WeatherDisplay:10.37,2013-03-27 07:05:00,
2013-03-27 03:10:00,34.1,25.7,29.97,SW,228,5.0,9.0,71,0.00,BKN,,0.00,0.0,WeatherDisplay:10.37,2013-03-27 07:10:00,
2013-03-27 03:15:00,34.1,25.7,29.96,SW,223,3.0,8.0,71,0.00,BKN,,0.00,0.0,WeatherDisplay:10.37,2013-03-27 07:15:00,
2013-03-27 03:20:00,34.1,25.7,29.96,SW,217,3.0,7.0,71,0.00,BKN,,0.00,0.0,WeatherDisplay:10.37,2013-03-27 07:20:00,
2013-03-27 03:25:00,34.1,25.7,29.96,SW,219,6.0,9.0,71,0.00,BKN,,0.00,0.0,WeatherDisplay:10.37,2013-03-27 07:25:00,
2013-03-27 03:30:00,34.1,25.7,29.96,SW,229,3.0,9.0,71,0.00,BKN,,0.00,0.0,WeatherDisplay:10.37,2013-03-27 07:30:00,
2013-03-27 03:35:00,34.3,25.9,29.96,SW,230,3.0,8.0,71,0.00,BKN,,0.00,0.0,WeatherDisplay:10.37,2013-03-27 07:35:00,
2013-03-27 03:40:00,34.3,25.9,29.96,SW,220,3.0,8.0,71,0.00,BKN,,0.00,0.0,WeatherDisplay:10.37,2013-03-27 07:40:00,
2013-03-27 03:45:00,34.3,25.9,29.96,SW,221,5.0,7.0,71,0.00,BKN,,0.00,0.0,WeatherDisplay:10.37,2013-03-27 07:45:00,
2013-03-27 03:50:00,34.4,26.0,29.96,SW,219,6.0,8.0,71,0.00,BKN,,0.00,0.0,WeatherDisplay:10.37,2013-03-27 07:50:00,
2013-03-27 03:55:00,34.4,26.0,29.96,SW,217,5.0,8.0,71,0.00,BKN,,0.00,0.0,WeatherDisplay:10.37,2013-03-27 07:55:00,
2013-03-27 04:00:00,34.6,26.2,29.96,SW,224,5.0,10.0,71,0.00,BKN,,0.00,0.0,WeatherDisplay:10.37,2013-03-27 08:00:00,
2013-03-27 04:05:00,34.6,26.2,29.96,SW,232,6.0,10.0,71,0.00,BKN,,0.00,0.0,WeatherDisplay:10.37,2013-03-27 08:05:00,
2013-03-27 04:10:00,34.7,26.2,29.96,SW,231,6.0,9.0,71,0.00,BKN,,0.00,0.0,WeatherDisplay:10.37,2013-03-27 08:10:00,
2013-03-27 04:15:00,34.7,26.3,29.96,SW,229,6.0,9.0,71,0.00,BKN,,0.00,0.0,WeatherDisplay:10.37,2013-03-27 08:15:00,
2013-03-27 04:20:00,34.8,26.4,29.96,SW,230,3.0,7.0,71,0.00,BKN,,0.00,0.0,WeatherDisplay:10.37,2013-03-27 08:20:00,
2013-03-27 04:25:00,34.8,26.4,29.96,SW,236,7.0,12.0,71,0.00,BKN,,0.00,0.0,WeatherDisplay:10.37,2013-03-27 08:25:00,
2013-03-27 04:30:00,35.0,26.5,29.96,WSW,239,5.0,10.0,71,0.00,BKN,,0.00,0.0,WeatherDisplay:10.37,2013-03-27 08:30:00,
2013-03-27 04:35:00,35.0,26.5,29.96,WSW,239,5.0,10.0,71,0.00,BKN,,0.00,0.0,WeatherDisplay:10.37,2013-03-27 08:35:00,
2013-03-27 04:40:00,35.0,26.9,29.96,SW,235,3.0,9.0,72,0.00,BKN,,0.00,0.0,WeatherDisplay:10.37,2013-03-27 08:40:00,
2013-03-27 04:45:00,35.0,26.9,29.96,SW,227,5.0,10.0,72,0.00,BKN,,0.00,0.0,WeatherDisplay:10.37,2013-03-27 08:45:00,
2013-03-27 04:50:00,35.0,26.9,29.96,SW,225,3.0,10.0,72,0.00,BKN,,0.00,0.0,WeatherDisplay:10.37,2013-03-27 08:50:00,
2013-03-27 04:55:00,34.8,27.0,29.96,SW,219,5.0,9.0,73,0.00,BKN,,0.00,0.0,WeatherDisplay:10.37,2013-03-27 08:55:00,
2013-03-27 05:00:00,34.8,27.0,29.96,SW,224,5.0,8.0,73,0.00,BKN,,0.00,0.0,WeatherDisplay:10.37,2013-03-27 09:00:00,
2013-03-27 05:10:00,34.7,26.9,29.96,SW,224,5.0,9.0,73,0.00,BKN,,0.00,0.0,WeatherDisplay:10.37,2013-03-27 09:10:00,
2013-03-27 05:15:00,34.7,26.9,29.96,SW,221,6.0,12.0,73,0.00,BKN,,0.00,0.0,WeatherDisplay:10.37,2013-03-27 09:15:00,
2013-03-27 05:20:00,34.7,26.9,29.96,SW,229,5.0,10.0,73,0.00,BKN,,0.00,0.0,WeatherDisplay:10.37,2013-03-27 09:20:00,
2013-03-27 05:25:00,34.8,27.0,29.96,SW,233,6.0,10.0,73,0.00,BKN,,0.00,0.0,WeatherDisplay:10.37,2013-03-27 09:25:00,
2013-03-27 05:30:00,34.8,27.0,29.96,SW,231,6.0,12.0,73,0.00,BKN,,0.00,0.0,WeatherDisplay:10.37,2013-03-27 09:30:00,
2013-03-27 05:35:00,34.8,27.0,29.96,SW,231,7.0,10.0,73,0.00,SCT,,0.00,0.0,WeatherDisplay:10.37,2013-03-27 09:35:00,
2013-03-27 05:40:00,34.7,26.9,29.96,SW,234,6.0,9.0,73,0.00,SCT,,0.00,0.0,WeatherDisplay:10.37,2013-03-27 09:40:00,
2013-03-27 05:45:00,34.6,26.8,29.97,WSW,238,3.0,7.0,73,0.00,SCT,,0.00,0.0,WeatherDisplay:10.37,2013-03-27 09:45:00,
2013-03-27 05:50:00,34.4,27.0,29.97,WSW,243,5.0,9.0,74,0.00,SCT,,0.00,0.0,WeatherDisplay:10.37,2013-03-27 09:50:00,
2013-03-27 05:55:00,34.3,26.8,29.97,SW,235,5.0,9.0,74,0.00,SCT,,0.00,0.0,WeatherDisplay:10.37,2013-03-27 09:55:00,
2013-03-27 06:00:00,34.0,26.9,29.98,SW,225,5.0,8.0,75,0.00,SCT,,0.00,0.0,WeatherDisplay:10.37,2013-03-27 10:00:00,
2013-03-27 06:05:00,33.8,26.7,29.98,SW,228,5.0,7.0,75,0.00,SCT,,0.00,0.0,WeatherDisplay:10.37,2013-03-27 10:05:00,
2013-03-27 06:10:00,33.7,26.9,29.98,WSW,239,6.0,8.0,76,0.00,SCT,,0.00,0.0,WeatherDisplay:10.37,2013-03-27 10:10:00,
2013-03-27 06:15:00,33.5,26.7,29.98,SW,229,3.0,7.0,76,0.00,SCT,,0.00,0.0,WeatherDisplay:10.37,2013-03-27 10:15:00,
2013-03-27 06:20:00,33.5,26.7,29.98,SW,223,5.0,9.0,76,0.00,SCT,,0.00,0.0,WeatherDisplay:10.37,2013-03-27 10:20:00,
2013-03-27 06:25:00,33.5,26.7,29.98,SW,225,3.0,10.0,76,0.00,SCT,,0.00,0.0,WeatherDisplay:10.37,2013-03-27 10:25:00,
2013-03-27 06:30:00,33.4,26.6,29.98,SW,228,5.0,9.0,76,0.00,SCT,,0.00,0.0,WeatherDisplay:10.37,2013-03-27 10:30:00,
2013-03-27 06:35:00,33.4,27.0,29.98,SW,233,6.0,10.0,77,0.00,BKN,,0.00,0.0,WeatherDisplay:10.37,2013-03-27 10:35:00,
2013-03-27 06:40:00,33.4,27.0,29.98,SW,232,5.0,8.0,77,0.00,BKN,,0.00,0.0,WeatherDisplay:10.37,2013-03-27 10:40:00,
2013-03-27 06:45:00,33.4,26.6,29.98,SW,231,6.0,10.0,76,0.00,BKN,,0.00,0.0,WeatherDisplay:10.37,2013-03-27 10:45:00,
2013-03-27 06:50:00,33.4,26.6,29.98,SW,229,6.0,10.0,76,0.00,BKN,,0.00,0.0,WeatherDisplay:10.37,2013-03-27 10:50:00,
2013-03-27 06:55:00,33.4,26.6,29.98,SW,231,3.0,7.0,76,0.00,BKN,,0.00,0.0,WeatherDisplay:10.37,2013-03-27 10:55:00,
2013-03-27 07:00:00,33.4,27.0,29.99,SW,232,6.0,12.0,77,0.00,BKN,,0.00,0.0,WeatherDisplay:10.37,2013-03-27 11:00:00,
2013-03-27 07:05:00,33.4,27.0,29.99,SW,231,3.0,8.0,77,0.00,BKN,,0.00,0.0,WeatherDisplay:10.37,2013-03-27 11:05:00,
2013-03-27 07:10:00,33.3,26.9,29.99,SW,233,3.0,8.0,77,0.00,BKN,,0.00,0.0,WeatherDisplay:10.37,2013-03-27 11:10:00,
2013-03-27 07:15:00,33.2,26.8,29.99,SW,236,5.0,8.0,77,0.00,BKN,,0.00,0.0,WeatherDisplay:10.37,2013-03-27 11:15:00,
2013-03-27 07:20:00,33.2,26.8,29.99,SW,234,6.0,7.0,77,0.00,BKN,,0.00,5.0,WeatherDisplay:10.37,2013-03-27 11:20:00,
2013-03-27 07:25:00,33.2,26.8,29.99,WSW,243,3.0,8.0,77,0.00,BKN,,0.00,7.0,WeatherDisplay:10.37,2013-03-27 11:25:00,
2013-03-27 07:30:00,33.2,26.8,29.99,WSW,244,3.0,7.0,77,0.00,BKN,,0.00,11.0,WeatherDisplay:10.37,2013-03-27 11:30:00,
2013-03-27 07:35:00,33.4,27.0,29.99,SW,232,5.0,9.0,77,0.00,BKN,,0.00,14.0,WeatherDisplay:10.37,2013-03-27 11:35:00,
2013-03-27 07:40:00,33.4,27.0,29.99,SW,235,3.0,7.0,77,0.00,BKN,,0.00,25.0,WeatherDisplay:10.37,2013-03-27 11:40:00,
2013-03-27 07:45:00,33.5,27.1,30.00,SW,234,2.0,6.0,77,0.00,BKN,,0.00,33.0,WeatherDisplay:10.37,2013-03-27 11:45:00,
2013-03-27 07:50:00,33.7,27.3,30.00,SW,227,3.0,7.0,77,0.00,BKN,,0.00,39.0,WeatherDisplay:10.37,2013-03-27 11:50:00,
2013-03-27 07:55:00,33.8,27.0,30.00,SW,222,3.0,8.0,76,0.00,BKN,,0.00,40.0,WeatherDisplay:10.37,2013-03-27 11:55:00,
2013-03-27 08:05:00,34.0,27.2,30.00,WSW,241,5.0,8.0,76,0.00,BKN,,0.00,49.0,WeatherDisplay:10.37,2013-03-27 12:05:00,
2013-03-27 08:10:00,34.1,27.3,30.00,SW,233,5.0,6.0,76,0.00,BKN,,0.00,58.0,WeatherDisplay:10.37,2013-03-27 12:10:00,
2013-03-27 08:15:00,34.3,27.5,30.01,SW,227,6.0,9.0,76,0.00,BKN,,0.00,51.0,WeatherDisplay:10.37,2013-03-27 12:15:00,
2013-03-27 08:20:00,34.6,27.5,30.01,SW,228,5.0,10.0,75,0.00,BKN,,0.00,97.0,WeatherDisplay:10.37,2013-03-27 12:20:00,
2013-03-27 08:25:00,34.8,27.4,30.01,WSW,239,6.0,13.0,74,0.00,BKN,,0.00,105.0,WeatherDisplay:10.37,2013-03-27 12:25:00,
2013-03-27 08:30:00,35.3,27.8,30.01,WSW,239,6.0,12.0,74,0.00,BKN,,0.00,113.0,WeatherDisplay:10.37,2013-03-27 12:30:00,
2013-03-27 08:35:00,35.8,28.0,30.01,WSW,239,6.0,12.0,73,0.00,BKN,,0.00,111.0,WeatherDisplay:10.37,2013-03-27 12:35:00,
2013-03-27 08:40:00,36.4,28.2,30.01,SW,233,7.0,12.0,72,0.00,BKN,,0.00,111.0,WeatherDisplay:10.37,2013-03-27 12:40:00,
2013-03-27 08:45:00,36.8,27.9,30.01,WSW,239,6.0,12.0,70,0.00,BKN,,0.00,137.0,WeatherDisplay:10.37,2013-03-27 12:45:00,
2013-03-27 08:50:00,37.1,27.9,30.01,WSW,243,8.0,13.0,69,0.00,BKN,,0.00,151.0,WeatherDisplay:10.37,2013-03-27 12:50:00,
2013-03-27 09:00:00,38.0,28.0,30.01,SW,233,8.0,13.0,67,0.00,BKN,,0.00,141.0,WeatherDisplay:10.37,2013-03-27 13:00:00,
2013-03-27 09:05:00,38.0,28.3,30.01,SW,234,5.0,9.0,68,0.00,BKN,,0.00,214.0,WeatherDisplay:10.37,2013-03-27 13:05:00,
2013-03-27 09:10:00,38.0,28.4,30.01,WSW,241,5.0,9.0,68,0.00,BKN,,0.00,171.0,WeatherDisplay:10.37,2013-03-27 13:10:00,
2013-03-27 09:15:00,38.0,28.0,30.02,SW,228,5.0,9.0,67,0.00,BKN,,0.00,155.0,WeatherDisplay:10.37,2013-03-27 13:15:00,
2013-03-27 09:20:00,38.0,28.4,30.02,SW,225,5.0,8.0,68,0.00,BKN,,0.00,171.0,WeatherDisplay:10.37,2013-03-27 13:20:00,
2013-03-27 09:25:00,38.0,28.4,30.02,SW,224,2.0,12.0,68,0.00,BKN,,0.00,169.0,WeatherDisplay:10.37,2013-03-27 13:25:00,
2013-03-27 09:30:00,38.2,28.6,30.01,SW,226,3.0,8.0,68,0.00,BKN,,0.00,209.0,WeatherDisplay:10.37,2013-03-27 13:30:00,
2013-03-27 09:35:00,38.6,28.6,30.01,WSW,237,6.0,12.0,67,0.00,BKN,,0.00,197.0,WeatherDisplay:10.37,2013-03-27 13:35:00,
2013-03-27 09:40:00,38.9,28.5,30.01,WSW,244,7.0,12.0,66,0.00,BKN,,0.00,214.0,WeatherDisplay:10.37,2013-03-27 13:40:00,
2013-03-27 09:45:00,39.4,28.9,30.02,WSW,238,6.0,9.0,66,0.00,BKN,,0.00,197.0,WeatherDisplay:10.37,2013-03-27 13:45:00,
2013-03-27 09:50:00,39.6,28.4,30.02,WSW,242,8.0,13.0,64,0.00,BKN,,0.00,213.0,WeatherDisplay:10.37,2013-03-27 13:50:00,
2013-03-27 09:55:00,39.6,28.4,30.02,SW,236,10.0,17.0,64,0.00,BKN,,0.00,236.0,WeatherDisplay:10.37,2013-03-27 13:55:00,
2013-03-27 10:00:00,39.7,28.9,30.02,WSW,239,6.0,15.0,65,0.00,BKN,,0.00,359.0,WeatherDisplay:10.37,2013-03-27 14:00:00,
2013-03-27 10:05:00,40.3,29.1,30.02,WSW,240,9.0,14.0,64,0.00,BKN,,0.00,355.0,WeatherDisplay:10.37,2013-03-27 14:05:00,
2013-03-27 10:10:00,40.6,29.0,30.02,WSW,243,7.0,13.0,63,0.00,BKN,,0.00,309.0,WeatherDisplay:10.37,2013-03-27 14:10:00,
2013-03-27 10:15:00,41.0,29.4,30.02,WSW,248,7.0,13.0,63,0.00,BKN,,0.00,302.0,WeatherDisplay:10.37,2013-03-27 14:15:00,
2013-03-27 10:20:00,41.0,29.4,30.02,SW,235,5.0,16.0,63,0.00,BKN,,0.00,279.0,WeatherDisplay:10.37,2013-03-27 14:20:00,
2013-03-27 10:25:00,41.0,29.0,30.02,SW,227,6.0,16.0,62,0.00,BKN,,0.00,234.0,WeatherDisplay:10.37,2013-03-27 14:25:00,
2013-03-27 10:30:00,40.9,29.3,30.02,SW,233,7.0,12.0,63,0.00,BKN,,0.00,165.0,WeatherDisplay:10.37,2013-03-27 14:30:00,
2013-03-27 10:35:00,41.3,29.3,30.02,SW,233,7.0,12.0,62,0.00,BKN,,0.00,369.0,WeatherDisplay:10.37,2013-03-27 14:35:00,
2013-03-27 10:40:00,42.0,30.3,30.02,SW,222,3.0,12.0,63,0.00,BKN,,0.00,151.0,WeatherDisplay:10.37,2013-03-27 14:40:00,
2013-03-27 10:45:00,42.9,30.4,30.02,SW,217,3.0,7.0,61,0.00,BKN,,0.00,185.0,WeatherDisplay:10.37,2013-03-27 14:45:00,
2013-03-27 10:50:00,43.6,29.8,30.02,SW,220,6.0,13.0,58,0.00,BKN,,0.00,397.0,WeatherDisplay:10.37,2013-03-27 14:50:00,
2013-03-27 10:55:00,43.7,30.3,30.02,SW,219,7.0,12.0,59,0.00,BKN,,0.00,691.0,WeatherDisplay:10.37,2013-03-27 14:55:00,
2013-03-27 11:00:00,43.9,29.7,30.02,SW,227,5.0,10.0,57,0.00,BKN,,0.00,98.0,WeatherDisplay:10.37,2013-03-27 15:00:00,
2013-03-27 11:05:00,43.0,29.7,30.02,SW,227,5.0,12.0,59,0.00,BKN,,0.00,155.0,WeatherDisplay:10.37,2013-03-27 15:05:00,
2013-03-27 11:10:00,43.1,30.1,30.02,SW,222,5.0,12.0,60,0.00,BKN,,0.00,366.0,WeatherDisplay:10.37,2013-03-27 15:10:00,
2013-03-27 11:15:00,43.7,29.5,30.02,SSW,212,8.0,13.0,57,0.00,BKN,,0.00,592.0,WeatherDisplay:10.37,2013-03-27 15:15:00,
2013-03-27 11:20:00,44.0,29.7,30.02,SSW,210,6.0,12.0,57,0.00,BKN,,0.00,411.0,WeatherDisplay:10.37,2013-03-27 15:20:00,
2013-03-27 11:25:00,44.4,30.1,30.02,WSW,246,8.0,12.0,57,0.00,BKN,,0.00,550.0,WeatherDisplay:10.37,2013-03-27 15:25:00,
2013-03-27 11:30:00,44.9,29.7,30.03,WSW,247,9.0,14.0,55,0.00,BKN,,0.00,482.0,WeatherDisplay:10.37,2013-03-27 15:30:00,
2013-03-27 11:35:00,45.0,30.2,30.03,WSW,252,5.0,13.0,56,0.00,BKN,,0.00,417.0,WeatherDisplay:10.37,2013-03-27 15:35:00,
2013-03-27 11:40:00,44.8,30.5,30.03,West,274,3.0,10.0,57,0.00,BKN,,0.00,299.0,WeatherDisplay:10.37,2013-03-27 15:40:00,
2013-03-27 11:45:00,44.1,31.1,30.03,West,272,6.0,12.0,60,0.00,BKN,,0.00,251.0,WeatherDisplay:10.37,2013-03-27 15:45:00,
2013-03-27 11:50:00,43.2,30.7,30.03,West,264,5.0,14.0,61,0.00,BKN,,0.00,339.0,WeatherDisplay:10.37,2013-03-27 15:50:00,
2013-03-27 11:55:00,43.3,30.7,30.03,West,267,6.0,13.0,61,0.00,BKN,,0.00,385.0,WeatherDisplay:10.37,2013-03-27 15:55:00,
2013-03-27 12:00:00,43.9,31.3,30.03,West,270,6.0,13.0,61,0.00,BKN,,0.00,376.0,WeatherDisplay:10.37,2013-03-27 16:00:00,
2013-03-27 12:05:00,44.6,31.1,30.03,West,263,5.0,10.0,59,0.00,BKN,,0.00,362.0,WeatherDisplay:10.37,2013-03-27 16:05:00,
2013-03-27 12:10:00,45.3,31.4,30.03,West,270,7.0,12.0,58,0.00,BKN,,0.00,461.0,WeatherDisplay:10.37,2013-03-27 16:10:00,
2013-03-27 12:15:00,46.2,31.4,30.03,West,270,5.0,12.0,56,0.00,BKN,,0.00,520.0,WeatherDisplay:10.37,2013-03-27 16:15:00,
2013-03-27 12:20:00,46.8,31.5,30.03,West,271,6.0,12.0,55,0.00,BKN,,0.00,566.0,WeatherDisplay:10.37,2013-03-27 16:20:00,
2013-03-27 12:25:00,46.8,31.0,30.03,West,272,5.0,13.0,54,0.00,BKN,,0.00,359.0,WeatherDisplay:10.37,2013-03-27 16:25:00,
2013-03-27 12:30:00,46.7,30.9,30.03,West,272,5.0,12.0,54,0.00,BKN,,0.00,635.0,WeatherDisplay:10.37,2013-03-27 16:30:00,
2013-03-27 12:35:00,46.8,30.5,30.03,West,272,6.0,15.0,53,0.00,BKN,,0.00,816.0,WeatherDisplay:10.37,2013-03-27 16:35:00,
2013-03-27 12:40:00,46.8,29.6,30.03,West,265,8.0,15.0,51,0.00,BKN,,0.00,795.0,WeatherDisplay:10.37,2013-03-27 16:40:00,
2013-03-27 12:45:00,47.0,30.3,30.03,West,276,6.0,16.0,52,0.00,BKN,,0.00,694.0,WeatherDisplay:10.37,2013-03-27 16:45:00,
2013-03-27 12:50:00,47.1,29.4,30.03,WSW,258,13.0,20.0,50,0.00,BKN,,0.00,773.0,WeatherDisplay:10.37,2013-03-27 16:50:00,
2013-03-27 12:55:00,47.0,30.3,30.03,West,260,7.0,14.0,52,0.00,BKN,,0.00,703.0,WeatherDisplay:10.37,2013-03-27 16:55:00,
2013-03-27 13:00:00,46.8,30.6,30.03,West,271,7.0,15.0,53,0.00,BKN,,0.00,425.0,WeatherDisplay:10.37,2013-03-27 17:00:00,
2013-03-27 13:05:00,46.1,30.4,30.03,West,261,13.0,18.0,54,0.00,BKN,,0.00,383.0,WeatherDisplay:10.37,2013-03-27 17:05:00,
2013-03-27 13:10:00,45.8,29.6,30.03,WSW,253,12.0,22.0,53,0.00,BKN,,0.00,726.0,WeatherDisplay:10.37,2013-03-27 17:10:00,
2013-03-27 13:15:00,45.9,30.2,30.03,WSW,252,12.0,17.0,54,0.00,BKN,,0.00,571.0,WeatherDisplay:10.37,2013-03-27 17:15:00,
2013-03-27 13:20:00,45.8,30.5,30.03,WSW,253,9.0,18.0,55,0.00,BKN,,0.00,580.0,WeatherDisplay:10.37,2013-03-27 17:20:00,
2013-03-27 13:25:00,46.3,30.6,30.03,WSW,250,9.0,13.0,54,0.00,BKN,,0.00,671.0,WeatherDisplay:10.37,2013-03-27 17:25:00,
2013-03-27 13:30:00,46.5,29.8,30.03,WSW,252,8.0,14.0,52,0.00,BKN,,0.00,529.0,WeatherDisplay:10.37,2013-03-27 17:30:00,
2013-03-27 13:35:00,46.8,30.1,30.03,WSW,257,5.0,14.0,52,0.00,OVC,,0.00,673.0,WeatherDisplay:10.37,2013-03-27 17:35:00,
2013-03-27 13:40:00,47.2,28.5,30.03,WSW,249,7.0,16.0,48,0.00,OVC,,0.00,691.0,WeatherDisplay:10.37,2013-03-27 17:40:00,
2013-03-27 13:45:00,47.6,26.2,30.03,WSW,251,10.0,15.0,43,0.00,OVC,,0.00,543.0,WeatherDisplay:10.37,2013-03-27 17:45:00,
2013-03-27 13:50:00,47.4,27.6,30.03,West,264,8.0,17.0,46,0.00,OVC,,0.00,345.0,WeatherDisplay:10.37,2013-03-27 17:50:00,
2013-03-27 13:55:00,46.6,29.0,30.03,West,278,6.0,14.0,50,0.00,OVC,,0.00,183.0,WeatherDisplay:10.37,2013-03-27 17:55:00,
2013-03-27 14:00:00,45.5,28.4,30.04,West,267,7.0,14.0,51,0.00,OVC,,0.00,232.0,WeatherDisplay:10.37,2013-03-27 18:00:00,
2013-03-27 14:05:00,44.8,28.7,30.04,West,262,8.0,16.0,53,0.00,OVC,,0.00,345.0,WeatherDisplay:10.37,2013-03-27 18:05:00,
2013-03-27 14:10:00,44.6,27.1,30.04,West,259,7.0,12.0,50,0.00,OVC,,0.00,290.0,WeatherDisplay:10.37,2013-03-27 18:10:00,
2013-03-27 14:15:00,44.6,27.1,30.03,WSW,258,5.0,12.0,50,0.00,OVC,,0.00,144.0,WeatherDisplay:10.37,2013-03-27 18:15:00,
2013-03-27 14:20:00,44.5,27.0,30.03,West,260,7.0,16.0,50,0.00,BKN,,0.00,158.0,WeatherDisplay:10.37,2013-03-27 18:20:00,
2013-03-27 14:25:00,44.2,27.2,30.03,West,270,7.0,13.0,51,0.00,BKN,,0.00,0.0,WeatherDisplay:10.37,2013-03-27 18:25:00,
2013-03-27 14:30:00,44.0,28.4,30.03,WSW,250,8.0,17.0,54,0.00,BKN,,0.00,105.0,WeatherDisplay:10.37,2013-03-27 18:30:00,
2013-03-27 14:40:00,43.0,33.2,30.03,West,261,7.0,12.0,68,0.00,BKN,,0.00,0.0,WeatherDisplay:10.37,2013-03-27 18:40:00,
2013-03-27 14:45:00,42.9,31.6,30.03,WSW,251,8.0,15.0,64,0.00,BKN,,0.00,0.0,WeatherDisplay:10.37,2013-03-27 18:45:00,
2013-03-27 14:50:00,43.0,30.8,30.03,WSW,253,8.0,13.0,62,0.00,BKN,,0.00,0.0,WeatherDisplay:10.37,2013-03-27 18:50:00,
2013-03-27 14:55:00,43.0,30.1,30.03,West,261,8.0,15.0,60,0.00,BKN,,0.00,0.0,WeatherDisplay:10.37,2013-03-27 18:55:00,
2013-03-27 15:00:00,42.9,30.4,30.03,WSW,254,6.0,13.0,61,0.00,BKN,,0.00,0.0,WeatherDisplay:10.37,2013-03-27 19:00:00,
2013-03-27 15:05:00,43.1,31.4,30.03,WSW,252,7.0,14.0,63,0.00,BKN,,0.00,0.0,WeatherDisplay:10.37,2013-03-27 19:05:00,
2013-03-27 15:10:00,43.3,29.5,30.03,West,265,7.0,13.0,58,0.00,BKN,,0.00,0.0,WeatherDisplay:10.37,2013-03-27 19:10:00,
2013-03-27 15:15:00,43.1,29.7,30.03,West,274,6.0,16.0,59,0.00,BKN,,0.00,0.0,WeatherDisplay:10.37,2013-03-27 19:15:00,
2013-03-27 15:20:00,42.8,31.0,30.03,West,265,6.0,14.0,63,0.00,BKN,,0.00,0.0,WeatherDisplay:10.37,2013-03-27 19:20:00,
2013-03-27 15:25:00,41.7,32.3,30.03,WSW,258,10.0,21.0,69,0.00,BKN,,0.00,0.0,WeatherDisplay:10.37,2013-03-27 19:25:00,
2013-03-27 15:30:00,40.6,32.7,30.04,WSW,251,8.0,15.0,73,0.00,BKN,,0.00,0.0,WeatherDisplay:10.37,2013-03-27 19:30:00,
2013-03-27 15:35:00,39.7,33.4,30.04,WSW,253,5.0,12.0,78,0.01,RA,,0.01,0.0,WeatherDisplay:10.37,2013-03-27 19:35:00,
2013-03-27 15:40:00,39.3,33.3,30.04,WSW,255,5.0,8.0,79,0.00,RA,,0.01,0.0,WeatherDisplay:10.37,2013-03-27 19:40:00,
2013-03-27 15:45:00,39.3,33.6,30.04,WSW,245,6.0,9.0,80,0.00,BKN,,0.01,0.0,WeatherDisplay:10.37,2013-03-27 19:45:00,
2013-03-27 15:50:00,39.3,33.6,30.04,WSW,239,2.0,7.0,80,0.00,BKN,,0.01,0.0,WeatherDisplay:10.37,2013-03-27 19:50:00,
2013-03-27 15:55:00,39.6,34.3,30.04,WSW,242,5.0,7.0,81,0.00,BKN,,0.01,0.0,WeatherDisplay:10.37,2013-03-27 19:55:00,
2013-03-27 16:00:00,40.0,34.6,30.04,WSW,247,5.0,6.0,81,0.00,BKN,,0.01,181.0,WeatherDisplay:10.37,2013-03-27 20:00:00,
2013-03-27 16:05:00,40.3,35.0,30.04,WSW,250,1.0,7.0,81,0.00,BKN,,0.01,0.0,WeatherDisplay:10.37,2013-03-27 20:05:00,
2013-03-27 16:10:00,40.7,34.7,30.04,WSW,256,6.0,8.0,79,0.00,BKN,,0.01,0.0,WeatherDisplay:10.37,2013-03-27 20:10:00,
2013-03-27 16:15:00,40.6,33.6,30.04,WSW,258,5.0,12.0,76,0.00,BKN,,0.01,121.0,WeatherDisplay:10.37,2013-03-27 20:15:00,
2013-03-27 16:25:00,40.3,33.0,30.04,WSW,257,5.0,12.0,75,0.00,BKN,,0.01,0.0,WeatherDisplay:10.37,2013-03-27 20:25:00,
2013-03-27 16:30:00,40.3,32.3,30.04,West,265,6.0,10.0,73,0.00,BKN,,0.01,0.0,WeatherDisplay:10.37,2013-03-27 20:30:00,
2013-03-27 16:35:00,40.3,32.7,30.04,West,279,5.0,12.0,74,0.00,BKN,,0.01,0.0,WeatherDisplay:10.37,2013-03-27 20:35:00,
2013-03-27 16:40:00,40.1,32.8,30.04,WNW,296,3.0,12.0,75,0.00,BKN,,0.01,100.0,WeatherDisplay:10.37,2013-03-27 20:40:00,
2013-03-27 16:45:00,39.9,33.0,30.04,WNW,292,3.0,12.0,76,0.00,BKN,,0.01,0.0,WeatherDisplay:10.37,2013-03-27 20:45:00,
2013-03-27 16:55:00,39.6,33.6,30.04,WNW,286,3.0,10.0,79,0.00,BKN,,0.01,0.0,WeatherDisplay:10.37,2013-03-27 20:55:00,
2013-03-27 17:00:00,39.4,33.7,30.04,WNW,282,3.0,12.0,80,0.00,BKN,,0.01,0.0,WeatherDisplay:10.37,2013-03-27 21:00:00,
2013-03-27 17:05:00,39.6,33.9,30.04,West,272,3.0,8.0,80,0.00,BKN,,0.01,0.0,WeatherDisplay:10.37,2013-03-27 21:05:00,
2013-03-27 17:10:00,39.6,33.6,30.04,West,272,3.0,10.0,79,0.00,BKN,,0.01,0.0,WeatherDisplay:10.37,2013-03-27 21:10:00,
2013-03-27 17:15:00,39.2,33.2,30.05,West,260,8.0,18.0,79,0.01,RA,,0.02,0.0,WeatherDisplay:10.37,2013-03-27 21:15:00,
2013-03-27 17:20:00,38.7,33.4,30.05,WSW,251,6.0,12.0,81,0.00,RA,,0.02,0.0,WeatherDisplay:10.37,2013-03-27 21:20:00,
2013-03-27 17:25:00,38.7,34.0,30.05,WSW,241,3.0,8.0,83,0.00,BKN,,0.02,0.0,WeatherDisplay:10.37,2013-03-27 21:25:00,
2013-03-27 17:30:00,38.9,34.2,30.05,SW,228,5.0,7.0,83,0.00,BKN,,0.02,0.0,WeatherDisplay:10.37,2013-03-27 21:30:00,
2013-03-27 17:35:00,39.1,34.1,30.05,SW,233,8.0,12.0,82,0.00,BKN,,0.02,0.0,WeatherDisplay:10.37,2013-03-27 21:35:00,
2013-03-27 17:40:00,39.3,33.6,30.05,WSW,245,5.0,9.0,80,0.00,BKN,,0.02,0.0,WeatherDisplay:10.37,2013-03-27 21:40:00,
2013-03-27 17:45:00,39.4,33.1,30.05,WSW,246,6.0,15.0,78,0.00,BKN,,0.02,93.0,WeatherDisplay:10.37,2013-03-27 21:45:00,
2013-03-27 17:55:00,39.4,31.1,30.05,SW,230,12.0,17.0,72,0.00,BKN,,0.02,37.0,WeatherDisplay:10.37,2013-03-27 21:55:00,
2013-03-27 18:00:00,39.1,30.5,30.06,SW,233,8.0,16.0,71,0.00,BKN,,0.02,0.0,WeatherDisplay:10.37,2013-03-27 22:00:00,
2013-03-27 18:05:00,39.0,30.7,30.06,WSW,241,8.0,15.0,72,0.00,BKN,,0.02,0.0,WeatherDisplay:10.37,2013-03-27 22:05:00,
2013-03-27 18:10:00,39.0,30.4,30.06,WSW,237,9.0,16.0,71,0.00,BKN,,0.02,0.0,WeatherDisplay:10.37,2013-03-27 22:10:00,
2013-03-27 18:15:00,38.9,30.3,30.06,SW,227,9.0,14.0,71,0.00,BKN,,0.02,46.0,WeatherDisplay:10.37,2013-03-27 22:15:00,
2013-03-27 18:20:00,38.9,30.3,30.06,SW,229,5.0,15.0,71,0.00,BKN,,0.02,0.0,WeatherDisplay:10.37,2013-03-27 22:20:00,
2013-03-27 18:25:00,38.9,30.2,30.06,SW,235,7.0,13.0,71,0.00,BKN,,0.02,47.0,WeatherDisplay:10.37,2013-03-27 22:25:00,
2013-03-27 18:35:00,38.6,31.0,30.06,WSW,242,9.0,13.0,74,0.00,OVC,,0.02,0.0,WeatherDisplay:10.37,2013-03-27 22:35:00,
2013-03-27 18:40:00,38.3,31.1,30.06,WSW,237,7.0,14.0,75,0.00,OVC,,0.02,0.0,WeatherDisplay:10.37,2013-03-27 22:40:00,
2013-03-27 18:45:00,38.0,31.1,30.07,SW,231,7.0,13.0,76,0.00,OVC,,0.02,26.0,WeatherDisplay:10.37,2013-03-27 22:45:00,
2013-03-27 18:50:00,37.9,31.0,30.07,SW,232,7.0,10.0,76,0.00,OVC,,0.02,19.0,WeatherDisplay:10.37,2013-03-27 22:50:00,
2013-03-27 18:55:00,37.8,30.9,30.07,WSW,238,10.0,15.0,76,0.00,OVC,,0.02,0.0,WeatherDisplay:10.37,2013-03-27 22:55:00,
2013-03-27 19:00:00,37.7,30.5,30.07,WSW,241,8.0,14.0,75,0.00,OVC,,0.02,0.0,WeatherDisplay:10.37,2013-03-27 23:00:00,
2013-03-27 19:05:00,37.7,30.5,30.07,WSW,242,7.0,12.0,75,0.00,OVC,,0.02,0.0,WeatherDisplay:10.37,2013-03-27 23:05:00,
2013-03-27 19:10:00,37.7,30.5,30.07,WSW,245,8.0,13.0,75,0.00,OVC,,0.02,0.0,WeatherDisplay:10.37,2013-03-27 23:10:00,
2013-03-27 19:15:00,37.7,30.2,30.07,WSW,246,7.0,12.0,74,0.00,OVC,,0.02,0.0,WeatherDisplay:10.37,2013-03-27 23:15:00,
2013-03-27 19:20:00,37.7,30.2,30.07,WSW,246,5.0,12.0,74,0.00,OVC,,0.02,0.0,WeatherDisplay:10.37,2013-03-27 23:20:00,
2013-03-27 19:25:00,37.7,30.8,30.07,WSW,241,3.0,12.0,76,0.00,OVC,,0.02,0.0,WeatherDisplay:10.37,2013-03-27 23:25:00,
2013-03-27 19:30:00,37.6,31.0,30.08,SW,235,5.0,10.0,77,0.00,OVC,,0.02,0.0,WeatherDisplay:10.37,2013-03-27 23:30:00,
2013-03-27 19:35:00,37.4,30.8,30.08,SW,229,5.0,10.0,77,0.00,BKN,,0.02,0.0,WeatherDisplay:10.37,2013-03-27 23:35:00,
2013-03-27 19:40:00,37.3,30.7,30.08,SW,229,5.0,10.0,77,0.00,BKN,,0.02,0.0,WeatherDisplay:10.37,2013-03-27 23:40:00,
2013-03-27 19:45:00,37.1,30.6,30.08,SW,226,5.0,9.0,77,0.00,BKN,,0.02,0.0,WeatherDisplay:10.37,2013-03-27 23:45:00,
2013-03-27 19:50:00,37.0,30.1,30.08,SW,220,6.0,12.0,76,0.00,BKN,,0.02,0.0,WeatherDisplay:10.37,2013-03-27 23:50:00,
2013-03-27 19:55:00,37.0,30.5,30.08,SW,235,6.0,9.0,77,0.00,BKN,,0.02,0.0,WeatherDisplay:10.37,2013-03-27 23:55:00,
2013-03-27 20:00:00,37.0,30.5,30.08,WSW,243,5.0,8.0,77,0.00,BKN,,0.02,0.0,WeatherDisplay:10.37,2013-03-28 00:00:00,
2013-03-27 20:10:00,36.7,30.5,30.08,SW,232,7.0,12.0,78,0.00,BKN,,0.02,0.0,WeatherDisplay:10.37,2013-03-28 00:10:00,
2013-03-27 20:15:00,36.6,30.4,30.08,SW,231,3.0,9.0,78,0.00,BKN,,0.02,0.0,WeatherDisplay:10.37,2013-03-28 00:15:00,
2013-03-27 20:20:00,36.4,30.5,30.08,SW,226,6.0,12.0,79,0.00,BKN,,0.02,0.0,WeatherDisplay:10.37,2013-03-28 00:20:00,
2013-03-27 20:25:00,36.3,30.7,30.08,SW,224,5.0,8.0,80,0.00,BKN,,0.02,0.0,WeatherDisplay:10.37,2013-03-28 00:25:00,
2013-03-27 20:30:00,36.0,30.4,30.08,SW,222,5.0,8.0,80,0.00,BKN,,0.02,0.0,WeatherDisplay:10.37,2013-03-28 00:30:00,
2013-03-27 20:35:00,36.0,30.4,30.08,SW,220,2.0,8.0,80,0.00,OVC,,0.02,0.0,WeatherDisplay:10.37,2013-03-28 00:35:00,
2013-03-27 20:40:00,35.8,30.2,30.08,SW,224,6.0,9.0,80,0.00,OVC,,0.02,0.0,WeatherDisplay:10.37,2013-03-28 00:40:00,
2013-03-27 20:45:00,35.8,30.2,30.09,SW,226,5.0,12.0,80,0.00,OVC,,0.02,0.0,WeatherDisplay:10.37,2013-03-28 00:45:00,
2013-03-27 20:50:00,35.7,30.7,30.09,SW,221,3.0,10.0,82,0.00,OVC,,0.02,0.0,WeatherDisplay:10.37,2013-03-28 00:50:00,
2013-03-27 20:55:00,35.6,30.9,30.09,SW,217,3.0,7.0,83,0.00,OVC,,0.02,0.0,WeatherDisplay:10.37,2013-03-28 00:55:00,
2013-03-27 21:00:00,35.4,30.8,30.09,SW,225,1.0,7.0,83,0.00,OVC,,0.02,0.0,WeatherDisplay:10.37,2013-03-28 01:00:00,
2013-03-27 21:10:00,35.1,31.0,30.09,SW,222,5.0,8.0,85,0.00,OVC,,0.02,0.0,WeatherDisplay:10.37,2013-03-28 01:10:00,
2013-03-27 21:15:00,35.0,31.2,30.09,SW,221,3.0,7.0,86,0.00,OVC,,0.02,0.0,WeatherDisplay:10.37,2013-03-28 01:15:00,
2013-03-27 21:20:00,34.9,31.4,30.09,SW,223,6.0,10.0,87,0.01,RA,,0.02,0.0,WeatherDisplay:10.37,2013-03-28 01:20:00,
2013-03-27 21:25:00,34.8,31.3,30.09,SW,229,6.0,10.0,87,0.00,RA,,0.02,0.0,WeatherDisplay:10.37,2013-03-28 01:25:00,
2013-03-27 21:30:00,34.7,31.2,30.10,SW,232,5.0,9.0,87,0.00,OVC,,0.02,0.0,WeatherDisplay:10.37,2013-03-28 01:30:00,
2013-03-27 21:35:00,34.6,31.4,30.10,SW,230,6.0,8.0,88,0.00,OVC,,0.02,0.0,WeatherDisplay:10.37,2013-03-28 01:35:00,
2013-03-27 21:40:00,34.4,31.2,30.10,SW,231,3.0,6.0,88,0.01,RA,,0.03,0.0,WeatherDisplay:10.37,2013-03-28 01:40:00,
2013-03-27 21:45:00,34.3,31.4,30.10,WSW,243,6.0,8.0,89,0.00,RA,,0.03,0.0,WeatherDisplay:10.37,2013-03-28 01:45:00,
2013-03-27 21:50:00,34.3,31.4,30.10,WSW,248,3.0,9.0,89,0.00,OVC,,0.03,0.0,WeatherDisplay:10.37,2013-03-28 01:50:00,
2013-03-27 21:55:00,34.3,31.7,30.10,WSW,241,3.0,8.0,90,0.00,OVC,,0.03,0.0,WeatherDisplay:10.37,2013-03-28 01:55:00,
2013-03-27 22:00:00,34.1,31.5,30.10,SW,227,3.0,6.0,90,0.00,OVC,,0.03,0.0,WeatherDisplay:10.37,2013-03-28 02:00:00,
2013-03-27 22:05:00,34.1,31.5,30.10,SW,232,3.0,7.0,90,0.00,OVC,,0.03,0.0,WeatherDisplay:10.37,2013-03-28 02:05:00,
2013-03-27 22:10:00,34.1,31.5,30.10,WSW,250,6.0,9.0,90,0.00,OVC,,0.03,0.0,WeatherDisplay:10.37,2013-03-28 02:10:00,
2013-03-27 22:15:00,34.1,31.5,30.10,WSW,257,3.0,8.0,90,0.00,OVC,,0.03,0.0,WeatherDisplay:10.37,2013-03-28 02:15:00,
2013-03-27 22:20:00,34.1,31.5,30.10,West,259,3.0,6.0,90,0.00,OVC,,0.03,0.0,WeatherDisplay:10.37,2013-03-28 02:20:00,
2013-03-27 22:25:00,34.0,31.4,30.10,West,262,2.0,5.0,90,0.01,RA,,0.04,0.0,WeatherDisplay:10.37,2013-03-28 02:25:00,
2013-03-27 22:35:00,33.8,31.5,30.10,SW,233,2.0,6.0,91,0.00,OVC,,0.04,0.0,WeatherDisplay:10.37,2013-03-28 02:35:00,
2013-03-27 22:40:00,33.7,31.4,30.10,SW,226,3.0,4.0,91,0.00,OVC,,0.04,0.0,WeatherDisplay:10.37,2013-03-28 02:40:00,
2013-03-27 22:45:00,33.7,31.4,30.09,SW,226,3.0,6.0,91,0.00,OVC,,0.04,0.0,WeatherDisplay:10.37,2013-03-28 02:45:00,
2013-03-27 22:50:00,33.7,31.4,30.09,SW,226,3.0,6.0,91,0.00,OVC,,0.04,0.0,WeatherDisplay:10.37,2013-03-28 02:50:00,
2013-03-27 22:55:00,33.7,31.6,30.09,SW,229,3.0,7.0,92,0.00,OVC,,0.04,0.0,WeatherDisplay:10.37,2013-03-28 02:55:00,
2013-03-27 23:00:00,33.7,31.6,30.09,SW,236,2.0,5.0,92,0.00,OVC,,0.04,0.0,WeatherDisplay:10.37,2013-03-28 03:00:00,
2013-03-27 23:05:00,33.8,31.7,30.09,WSW,242,3.0,5.0,92,0.00,BKN,,0.04,0.0,WeatherDisplay:10.37,2013-03-28 03:05:00,
2013-03-27 23:15:00,34.0,31.9,30.09,WSW,243,5.0,8.0,92,0.00,BKN,,0.04,0.0,WeatherDisplay:10.37,2013-03-28 03:15:00,
2013-03-27 23:20:00,34.1,31.7,30.09,WSW,255,6.0,8.0,91,0.00,BKN,,0.04,0.0,WeatherDisplay:10.37,2013-03-28 03:20:00,
2013-03-27 23:25:00,34.1,31.7,30.09,West,259,5.0,9.0,91,0.00,BKN,,0.04,0.0,WeatherDisplay:10.37,2013-03-28 03:25:00,
2013-03-27 23:35:00,34.3,31.7,30.09,West,278,3.0,8.0,90,0.00,BKN,,0.04,0.0,WeatherDisplay:10.37,2013-03-28 03:35:00,
2013-03-27 23:40:00,34.3,31.7,30.09,WNW,285,2.0,6.0,90,0.00,BKN,,0.04,0.0,WeatherDisplay:10.37,2013-03-28 03:40:00,
2013-03-27 23:45:00,34.3,31.4,30.09,West,271,2.0,6.0,89,0.00,BKN,,0.04,0.0,WeatherDisplay:10.37,2013-03-28 03:45:00,
2013-03-27 23:55:00,34.3,31.4,30.09,West,267,6.0,8.0,89,0.00,BKN,,0.04,0.0,WeatherDisplay:10.37,2013-03-28 03:55:00,